Zurück zum Katalog

STARLINK-2558

AktivKommunikationVLEO
NORAD 48282·PAYLOAD·🇺🇸 United States

Gestartet Apr 29, 2021 von Cape Canaveral Space Force Station

Loading…

Nächste Überflüge (nächste 24 Stunden)

TLE

AktuellSource: CelesTrak SupGP

Epoche: Sep 15, 2026, 00:49 UTC

1 48282C 21036G   26258.03451389  .00028854  00000+0  92751-3 0  2583
2 48282  53.1578 274.2658 0001165  92.5083 309.5863 15.31699916    14

Verfolge STARLINK-2558 in Echtzeit mit AllMySat

Download on the App Store